Flag for Norway Weather past 2 weeks in Rygge, Norway

Now
40 °F

Overcast.


Feels Like: 35 °F
Forecast: 32 / 41 °F
Wind: 6 mph from South

Location: Rygge

Current Time: Mar 29, 2015 at 10:17:26 AM

Latest Report: Mar 29, 2015 at 9:00 AM


Visibility: 0 mi

Pressure: 29.15 "Hg

Humidity: 99%

Dew point: 39 °F

Location of RyggeLocation

Historic Weather in Rygge — Graph

°F

Rygge temperature yesterday

Maximum temperature yesterday: 43 °F (at 1:00 PM)
Minimum temperature yesterday: 25 °F (at 5:00 AM)
Average temperature yesterday: 34 °F

Past Weeks' High & Low Weather Summary

 TemperatureHumidityPressure
High51 °F (Mar 24, 3:00 PM)100% (Mar 19, 1:00 AM)30.87 "Hg (Mar 19, 1:00 AM)
Low25 °F (Mar 28, 5:00 AM)26% (Mar 21, 5:00 PM)29.15 "Hg (Mar 29, 9:00 AM)
Average37 °F80%30.19 "Hg
* Reported Mar 14 8:00 AM — Mar 29 9:00 AM, Rygge, Weather by CustomWeather, © 2015

Note: Actual official high and low records may vary slightly from our data, if they occured in-between our weather recording intervals... More about our weather records

Advertising

Rygge weather history for previous 24 hours

 ConditionsComfort  
Time TempWeatherWind HumidityBarometerVisibility
9:00 AM
Sun, Mar 29
40 °FOvercast.6 mph99%29.15 "Hg1 mi
8:00 AM40 °FLow clouds.6 mph99%29.18 "Hg0 mi
7:00 AM39 °FRain showers. Dense fog.6 mph99%29.18 "Hg1 mi
6:00 AM36 °FDrizzle. Overcast.6 mph98%29.21 "Hg1 mi
5:00 AM36 °FRain showers. Low clouds.7 mph97%29.23 "Hg2 mi
4:00 AM35 °FLight rain. Low clouds.8 mph96%29.29 "Hg4 mi
3:00 AM34 °FLight rain. Low clouds.7 mph97%29.35 "Hg4 mi
1:00 AM33 °FLight rain. Low clouds.6 mph97%29.41 "Hg4 mi
12:00 AM35 °FLight rain. Low clouds.7 mph95%29.44 "Hg4 mi
11:00 PM
Sat, Mar 28
36 °FLight rain. Low clouds.9 mph93%29.50 "Hg5 mi
9:00 PM38 °FOvercast.9 mph82%29.59 "Hg19 mi
8:00 PM38 °FOvercast.8 mph88%29.64 "Hg17 mi
7:00 PM37 °FLow clouds.7 mph94%29.68 "Hg7 mi
6:00 PM38 °FLow clouds.6 mph93%29.72 "Hg6 mi
5:00 PM38 °FLow clouds.7 mph92%29.75 "Hg22 mi
4:00 PM40 °FLow clouds.6 mph87%29.78 "Hg25 mi
3:00 PM40 °FSunny.7 mph79%29.82 "Hg19 mi
2:00 PM41 °FSunny.8 mph72%29.84 "Hg25 mi
1:00 PM43 °FSunny.6 mph59%29.86 "Hg25 mi
12:00 PM40 °FSunny.3 mph76%29.88 "Hg19 mi
11:00 AM36 °FSunny.3 mph84%29.90 "Hg14 mi
10:00 AM35 °FSunny.2 mph87%29.91 "Hg10 mi
Weather by CustomWeather, © 2015

See weather overviewHow to use our weather pages